User: anonymous   Login
Location: Unspecified
(0.0000°N, 0.0000°E)
Time: 10:53:39
(UTC+00:00)
Language:

CANX 3B (BRITE-ASRA) - Orbit

View from above orbital plane
View from above orbital plane
View from above satellite
View from above satellite

Ground track
Ground track

The orbit data is extracted from the following two-line orbital elements,

1 39091U 13009F   15244.85379805 +.00000030 +00000-0 +25942-4 0  9995
2 39091 098.5994 083.1192 0011734 087.4652 272.7876 14.34908626131647
Epoch (UTC): 01 September 2015 20:29:28
Eccentricity: 0.0011734
inclination: 98.5994°
perigee height: 767 km
apogee height: 784 km
right ascension of ascending node: 83.1192°
argument of perigee: 87.4652°
revolutions per day: 14.34908626
mean anomaly at epoch: 272.7876°
orbit number at epoch: 13164

The dashed part of the orbit path shows where the satellite is in the earth's shadow,  

DLR